• In Belgium
  • List of Countries
  • For 7 days
  • Water Temperature
  • Satellite Maps
  • Weather Map
  • Weather Widgets
  • user-avatar
    Login

    Hourly Weather Lokeren

    Today, 21 October, Sunday

    Time Temperature Precipitation Wind Pressure Humidity
    00:00 +9°C° 0 mm 1 mps 772 mmHg 78%
    01:00 +9°C° 0 mm 1 mps 772 mmHg 78%
    02:00 +9°C° 0 mm 1 mps 771 mmHg 78%
    03:00 +9°C° 0 mm 1 mps 771 mmHg 79%
    04:00 +9°C° 0 mm 1 mps 771 mmHg 79%
    05:00 +9°C° 0 mm 1 mps 771 mmHg 79%
    06:00 +9°C° 0 mm 1 mps 771 mmHg 80%
    07:00 +9°C° 0 mm 2 mps 771 mmHg 75%
    08:00 +12°C° 0 mm 2 mps 771 mmHg 69%
    09:00 +13°C° 0 mm 2 mps 771 mmHg 64%
    10:00 +14°C° 0 mm 1 mps 770 mmHg 61%
    11:00 +16°C° 0 mm 1 mps 770 mmHg 57%
    12:00 +18°C° 0 mm 1 mps 770 mmHg 53%
    13:00 +18°C° 0 mm 1 mps 770 mmHg 54%
    14:00 +18°C° 0 mm 1 mps 769 mmHg 55%
    15:00 +19°C° 0 mm 1 mps 769 mmHg 55%
    16:00 +16°C° 0 mm 1 mps 769 mmHg 61%
    17:00 +15°C° 0 mm 1 mps 769 mmHg 67%
    18:00 +13°C° 0 mm 1 mps 769 mmHg 73%
    19:00 +13°C° 0 mm 1 mps 769 mmHg 75%
    20:00 +12°C° 0 mm 1 mps 769 mmHg 78%
    21:00 +12°C° 0 mm 1 mps 770 mmHg 80%
    22:00 +12°C° 0 mm 1 mps 770 mmHg 82%
    23:00 +12°C° 0 mm 1 mps 770 mmHg 84%

    Tomorrow, 22 October, Monday

    Time Temperature Precipitation Wind Pressure Humidity
    00:00 +12°C° 0 mm 1 mps 770 mmHg 85%
    01:00 +12°C° 0.1 mm 2 mps 770 mmHg 87%
    02:00 +12°C° 0.1 mm 2 mps 770 mmHg 88%
    03:00 +12°C° 0.1 mm 3 mps 770 mmHg 90%
    04:00 +12°C° 0.2 mm 4 mps 771 mmHg 89%
    05:00 +12°C° 0.2 mm 5 mps 771 mmHg 87%
    06:00 +13°C° 0.2 mm 6 mps 772 mmHg 86%
    07:00 +11°C° 0.2 mm 6 mps 772 mmHg 84%
    08:00 +11°C° 0.2 mm 6 mps 773 mmHg 82%
    09:00 +11°C° 0.2 mm 6 mps 773 mmHg 80%
    10:00 +13°C° 0 mm 6 mps 774 mmHg 74%
    11:00 +13°C° 0 mm 6 mps 774 mmHg 69%
    12:00 +14°C° 0 mm 6 mps 775 mmHg 63%
    13:00 +14°C° 0 mm 6 mps 775 mmHg 62%
    14:00 +13°C° 0 mm 6 mps 775 mmHg 61%
    15:00 +13°C° 0 mm 5 mps 775 mmHg 59%
    16:00 +12°C° 0 mm 5 mps 775 mmHg 62%
    17:00 +10°C° 0 mm 4 mps 776 mmHg 65%
    18:00 +9°C° 0 mm 3 mps 776 mmHg 68%
    19:00 +9°C° 0 mm 3 mps 776 mmHg 69%
    20:00 +8°C° 0 mm 2 mps 777 mmHg 70%
    21:00 +8°C° 0 mm 2 mps 777 mmHg 71%
    22:00 +8°C° 0 mm 2 mps 777 mmHg 73%
    23:00 +8°C° 0 mm 2 mps 776 mmHg 74%

    Day after tomorrow, 23 October, Tuesday

    Time Temperature Precipitation Wind Pressure Humidity
    00:00 +8°C° 0 mm 1 mps 776 mmHg 75%
    01:00 +7°C° 0 mm 2 mps 776 mmHg 76%
    02:00 +7°C° 0 mm 3 mps 775 mmHg 77%
    03:00 +7°C° 0 mm 3 mps 775 mmHg 78%
    04:00 +6°C° 0 mm 4 mps 775 mmHg 79%
    05:00 +6°C° 0 mm 4 mps 774 mmHg 81%
    06:00 +7°C° 0 mm 5 mps 774 mmHg 83%
    07:00 +8°C° 0 mm 5 mps 773 mmHg 80%
    08:00 +9°C° 0 mm 6 mps 773 mmHg 77%
    09:00 +11°C° 0 mm 6 mps 773 mmHg 74%
    10:00 +11°C° 0 mm 6 mps 772 mmHg 72%
    11:00 +12°C° 0 mm 7 mps 772 mmHg 71%
    12:00 +12°C° 0 mm 7 mps 771 mmHg 70%
    13:00 +14°C° 0 mm 7 mps 771 mmHg 70%
    14:00 +14°C° 0 mm 7 mps 770 mmHg 69%
    15:00 +14°C° 0 mm 6 mps 770 mmHg 69%
    16:00 +13°C° 0 mm 6 mps 770 mmHg 72%
    17:00 +13°C° 0 mm 5 mps 770 mmHg 75%
    18:00 +12°C° 0 mm 5 mps 770 mmHg 78%
    19:00 +12°C° 0 mm 5 mps 770 mmHg 80%
    20:00 +13°C° 0 mm 5 mps 770 mmHg 81%
    21:00 +13°C° 0 mm 5 mps 770 mmHg 82%
    22:00 +13°C° 0 mm 5 mps 770 mmHg 84%
    23:00 +13°C° 0 mm 5 mps 770 mmHg 86%

    24 October, Wednesday

    Time Temperature Precipitation Wind Pressure Humidity
    00:00 +13°C° 0 mm 5 mps 770 mmHg 88%
    01:00 +13°C° 0 mm 5 mps 770 mmHg 89%
    02:00 +13°C° 0 mm 5 mps 770 mmHg 89%
    03:00 +13°C° 0 mm 5 mps 770 mmHg 90%
    04:00 +13°C° 0 mm 5 mps 770 mmHg 90%
    05:00 +14°C° 0 mm 5 mps 770 mmHg 89%
    06:00 +14°C° 0 mm 5 mps 770 mmHg 89%
    07:00 +15°C° 0 mm 5 mps 770 mmHg 87%
    08:00 +15°C° 0 mm 5 mps 770 mmHg 85%
    09:00 +16°C° 0 mm 5 mps 770 mmHg 83%
    10:00 +16°C° 0 mm 5 mps 770 mmHg 81%
    11:00 +17°C° 0 mm 5 mps 770 mmHg 79%
    12:00 +17°C° 0 mm 5 mps 770 mmHg 78%
    13:00 +17°C° 0 mm 5 mps 770 mmHg 78%
    14:00 +17°C° 0 mm 5 mps 770 mmHg 78%
    15:00 +17°C° 0 mm 5 mps 770 mmHg 79%
    16:00 +17°C° 0 mm 4 mps 770 mmHg 83%
    17:00 +15°C° 0 mm 4 mps 770 mmHg 87%
    18:00 +14°C° 0 mm 3 mps 770 mmHg 91%
    19:00 +14°C° 0 mm 3 mps 770 mmHg 91%
    20:00 +15°C° 0 mm 2 mps 770 mmHg 92%
    21:00 +14°C° 0 mm 2 mps 770 mmHg 92%
    22:00 +14°C° 0 mm 2 mps 769 mmHg 92%
    23:00 +14°C° 0 mm 2 mps 769 mmHg 92%

    25 October, Thursday

    Time Temperature Precipitation Wind Pressure Humidity
    00:00 +15°C° 0 mm 2 mps 769 mmHg 91%
    01:00 +13°C° 0 mm 3 mps 769 mmHg 92%
    02:00 +13°C° 0 mm 3 mps 768 mmHg 93%
    03:00 +13°C° 0 mm 3 mps 768 mmHg 94%
    04:00 +12°C° 0 mm 3 mps 767 mmHg 94%
    05:00 +12°C° 0 mm 3 mps 767 mmHg 94%
    06:00 +11°C° 0 mm 3 mps 767 mmHg 94%
    07:00 +12°C° 0 mm 3 mps 767 mmHg 88%
    08:00 +12°C° 0 mm 4 mps 767 mmHg 83%
    09:00 +13°C° 0 mm 4 mps 766 mmHg 78%
    10:00 +13°C° 0 mm 4 mps 766 mmHg 75%
    11:00 +14°C° 0 mm 3 mps 766 mmHg 73%
    12:00 +14°C° 0 mm 3 mps 766 mmHg 70%
    13:00 +14°C° 0 mm 3 mps 765 mmHg 70%
    14:00 +14°C° 0 mm 3 mps 765 mmHg 69%
    15:00 +14°C° 0 mm 3 mps 764 mmHg 69%
    16:00 +14°C° 0 mm 2 mps 764 mmHg 73%
    17:00 +12°C° 0 mm 2 mps 763 mmHg 78%
    18:00 +10°C° 0 mm 2 mps 763 mmHg 83%
    19:00 +10°C° 0 mm 2 mps 763 mmHg 85%
    20:00 +9°C° 0 mm 2 mps 763 mmHg 86%
    21:00 +9°C° 0 mm 2 mps 762 mmHg 88%
    22:00 +8°C° 0 mm 2 mps 762 mmHg 89%
    23:00 +8°C° 0 mm 2 mps 761 mmHg 90%

    26 October, Friday

    Time Temperature Precipitation Wind Pressure Humidity
    00:00 +8°C° 0 mm 3 mps 760 mmHg 90%
    01:00 +8°C° 0 mm 3 mps 760 mmHg 90%
    02:00 +7°C° 0 mm 3 mps 759 mmHg 90%
    03:00 +7°C° 0 mm 3 mps 759 mmHg 90%
    04:00 +8°C° 0 mm 3 mps 758 mmHg 88%
    05:00 +8°C° 0 mm 3 mps 758 mmHg 85%
    06:00 +9°C° 0 mm 3 mps 757 mmHg 82%
    07:00 +9°C° 0.1 mm 3 mps 757 mmHg 81%
    08:00 +10°C° 0.1 mm 3 mps 756 mmHg 80%
    09:00 +11°C° 0.1 mm 3 mps 756 mmHg 79%
    10:00 +11°C° 0.2 mm 3 mps 756 mmHg 78%
    11:00 +12°C° 0.2 mm 3 mps 755 mmHg 77%
    12:00 +12°C° 0.2 mm 3 mps 754 mmHg 76%
    13:00 +12°C° 0.4 mm 3 mps 754 mmHg 79%
    14:00 +11°C° 0.4 mm 3 mps 754 mmHg 81%
    15:00 +10°C° 0.4 mm 4 mps 753 mmHg 84%
    16:00 +10°C° 0.4 mm 4 mps 753 mmHg 87%
    17:00 +8°C° 0.4 mm 4 mps 753 mmHg 89%
    18:00 +8°C° 0.4 mm 4 mps 753 mmHg 91%
    19:00 +8°C° 0.4 mm 4 mps 753 mmHg 90%
    20:00 +8°C° 0.4 mm 4 mps 753 mmHg 89%
    21:00 +8°C° 0.4 mm 4 mps 753 mmHg 89%
    22:00 +9°C° 0.4 mm 3 mps 753 mmHg 88%
    23:00 +9°C° 0.4 mm 3 mps 753 mmHg 87%
    Show more